Flag for Germany Weather past 2 weeks in Oldenburg, Lower Saxony, Germany

Now
57 °F

Clear.


Feels Like: 57 °F
Forecast: 51 / 70 °F
Wind: 5 mph from East

Location: Bremen Airport

Current Time: Sep 3, 2014 at 12:21:13 AM

Latest Report: Sep 2, 2014 at 11:50 PM


Visibility: 10 mi

Pressure: 30.27 "Hg

Humidity: 88%

Dew point: 54 °F

Location of OldenburgLocation

Historic Weather in Oldenburg — Graph

°F

Oldenburg temperature yesterday

Maximum temperature yesterday: 70 °F (at 4:50 PM)
Minimum temperature yesterday: 57 °F (at 2:20 AM)
Average temperature yesterday: 62 °F

Past Weeks' High & Low Weather Summary

 TemperatureHumidityPressure
High75 °F (Aug 28, 2:50 PM)100% (Aug 21, 4:50 AM)30.27 "Hg (Aug 21, 4:50 AM)
Low43 °F (Aug 25, 4:50 AM)33% (Aug 27, 2:20 PM)29.71 "Hg (Aug 18, 11:20 PM)
Average57 °F80%29.93 "Hg
* Reported Aug 18 11:20 PM — Sep 2 11:20 PM, Oldenburg, Weather by CustomWeather, © 2014

Note: Actual official high and low records may vary slightly from our data, if they occured in-between our weather recording intervals... More about our weather records

Advertising

Oldenburg weather history for previous 24 hours

 ConditionsComfort  
Time TempWeatherWind HumidityBarometerVisibility
11:20 PM
Sep 2
57 °FClear.7 mph82%30.27 "Hg10 mi
10:50 PM59 °FClear.7 mph94%30.27 "Hg10 mi
10:20 PM57 °FFog.1 mph94%30.24 "HgN/A
9:50 PM59 °FFog.No wind94%30.24 "HgN/A
9:20 PM57 °FPassing clouds.1 mph88%30.24 "HgN/A
8:50 PM59 °FPassing clouds.2 mph94%30.21 "HgN/A
8:20 PM61 °FPassing clouds.2 mph88%30.21 "HgN/A
7:50 PM63 °FPassing clouds.5 mph83%30.21 "HgN/A
7:20 PM64 °FPassing clouds.6 mph78%30.21 "HgN/A
6:50 PM66 °FPassing clouds.5 mph78%30.21 "HgN/A
6:20 PM66 °FPassing clouds.3 mph73%30.18 "HgN/A
5:50 PM68 °FPassing clouds.5 mph64%30.18 "HgN/A
5:20 PM70 °FPassing clouds.1 mph60%30.18 "HgN/A
4:50 PM70 °FPassing clouds.2 mph60%30.18 "HgN/A
4:20 PM68 °FScattered clouds.3 mph64%30.18 "HgN/A
3:50 PM68 °FPartly sunny.3 mph69%30.18 "HgN/A
3:20 PM66 °FPartly sunny.7 mph73%30.18 "HgN/A
2:50 PM68 °FScattered clouds.6 mph69%30.18 "HgN/A
2:20 PM66 °FScattered clouds.7 mph68%30.18 "HgN/A
1:50 PM64 °FScattered clouds.6 mph78%30.18 "HgN/A
1:20 PM63 °FBroken clouds.9 mph83%30.18 "HgN/A
12:50 PM64 °FPartly sunny.8 mph78%30.18 "HgN/A
12:20 PM64 °FPartly sunny.8 mph78%30.18 "HgN/A
11:50 AM64 °FBroken clouds.9 mph78%30.18 "HgN/A
11:20 AM63 °FBroken clouds.6 mph83%30.18 "HgN/A
10:50 AM64 °FBroken clouds.9 mph83%30.15 "Hg5 mi
10:20 AM63 °FPartly sunny.7 mph88%30.15 "Hg4 mi
9:50 AM63 °FPartly sunny.7 mph88%30.15 "Hg4 mi
9:20 AM63 °FPartly sunny.7 mph88%30.15 "Hg4 mi
8:50 AM63 °FPartly sunny.8 mph88%30.12 "Hg4 mi
8:20 AM61 °FFog.7 mph100%30.12 "Hg2 mi
7:50 AM61 °FFog.7 mph94%30.12 "Hg2 mi
7:20 AM61 °FDrizzle. Fog.8 mph94%30.12 "Hg2 mi
6:50 AM61 °FPartly cloudy.9 mph94%30.12 "Hg4 mi
6:20 AM61 °FPassing clouds.7 mph94%30.09 "Hg4 mi
5:50 AM61 °FPassing clouds.7 mph94%30.09 "Hg4 mi
5:20 AM59 °FPassing clouds.5 mph100%30.09 "HgN/A
4:50 AM59 °FPassing clouds.5 mph94%30.09 "HgN/A
4:20 AM59 °FPassing clouds.5 mph94%30.09 "HgN/A
3:50 AM59 °FPassing clouds.5 mph94%30.09 "HgN/A
3:20 AM59 °FPassing clouds.3 mph94%30.09 "HgN/A
2:50 AM59 °FPassing clouds.3 mph94%30.09 "HgN/A
2:20 AM57 °FPassing clouds.2 mph94%30.09 "HgN/A
1:50 AM59 °FPassing clouds.7 mph94%30.09 "HgN/A
1:20 AM61 °FPassing clouds.7 mph88%30.09 "HgN/A
12:50 AM61 °FPassing clouds.8 mph88%30.09 "HgN/A
12:20 AM61 °FPassing clouds.7 mph88%30.09 "HgN/A
Weather by CustomWeather, © 2014

See weather overviewHow to use our weather pages